• In Hungary
  • List of Countries
  • For 7 days
  • Water Temperature
  • Satellite Maps
  • Weather Map
  • News
  • Weather Widgets
  • user-avatar
    Login

    Hourly Weather Chudino

    Today, 25 May, Friday

    Time Temperature Precipitation Wind Pressure Humidity
    00:00 +10°C° 0 mm 2 mps 751 mmHg 83%
    01:00 +9°C° 0 mm 2 mps 752 mmHg 80%
    02:00 +8°C° 0 mm 2 mps 752 mmHg 86%
    03:00 +8°C° 0 mm 2 mps 752 mmHg 80%
    04:00 +9°C° 0 mm 2 mps 753 mmHg 75%
    05:00 +9°C° 0 mm 2 mps 753 mmHg 69%
    06:00 +12°C° 0 mm 2 mps 753 mmHg 60%
    07:00 +14°C° 0 mm 2 mps 754 mmHg 52%
    08:00 +14°C° 0 mm 3 mps 754 mmHg 42%
    09:00 +16°C° 0 mm 3 mps 754 mmHg 40%
    10:00 +17°C° 0 mm 3 mps 754 mmHg 38%
    11:00 +18°C° 0 mm 3 mps 754 mmHg 36%
    12:00 +19°C° 0 mm 3 mps 754 mmHg 35%
    13:00 +19°C° 0 mm 2 mps 754 mmHg 35%
    14:00 +20°C° 0 mm 2 mps 754 mmHg 34%
    15:00 +20°C° 0 mm 2 mps 754 mmHg 36%
    16:00 +20°C° 0 mm 2 mps 754 mmHg 37%
    17:00 +19°C° 0 mm 2 mps 754 mmHg 39%
    18:00 +17°C° 0 mm 2 mps 754 mmHg 47%
    19:00 +15°C° 0 mm 1 mps 754 mmHg 54%
    20:00 +13°C° 0 mm 1 mps 755 mmHg 62%
    21:00 +12°C° 0 mm 1 mps 755 mmHg 64%
    22:00 +12°C° 0 mm 1 mps 755 mmHg 66%
    23:00 +11°C° 0 mm 1 mps 756 mmHg 68%

    Tomorrow, 26 May, Saturday

    Time Temperature Precipitation Wind Pressure Humidity
    00:00 +10°C° 0 mm 1 mps 756 mmHg 70%
    01:00 +10°C° 0 mm 1 mps 756 mmHg 72%
    02:00 +9°C° 0 mm 1 mps 757 mmHg 73%
    03:00 +10°C° 0 mm 1 mps 757 mmHg 71%
    04:00 +10°C° 0 mm 1 mps 757 mmHg 69%
    05:00 +11°C° 0 mm 1 mps 758 mmHg 67%
    06:00 +13°C° 0 mm 1 mps 758 mmHg 59%
    07:00 +15°C° 0 mm 2 mps 758 mmHg 52%
    08:00 +17°C° 0 mm 2 mps 758 mmHg 44%
    09:00 +19°C° 0 mm 2 mps 758 mmHg 41%
    10:00 +20°C° 0 mm 2 mps 758 mmHg 38%
    11:00 +21°C° 0 mm 2 mps 758 mmHg 34%
    12:00 +23°C° 0 mm 2 mps 757 mmHg 34%
    13:00 +23°C° 0 mm 2 mps 757 mmHg 34%
    14:00 +24°C° 0 mm 2 mps 757 mmHg 33%
    15:00 +23°C° 0 mm 2 mps 756 mmHg 35%
    16:00 +23°C° 0 mm 2 mps 756 mmHg 37%
    17:00 +23°C° 0 mm 2 mps 755 mmHg 39%
    18:00 +20°C° 0 mm 2 mps 755 mmHg 48%
    19:00 +18°C° 0 mm 2 mps 755 mmHg 57%
    20:00 +16°C° 0 mm 2 mps 755 mmHg 65%
    21:00 +15°C° 0 mm 2 mps 755 mmHg 68%
    22:00 +14°C° 0 mm 2 mps 755 mmHg 70%
    23:00 +13°C° 0 mm 2 mps 755 mmHg 72%

    Day after tomorrow, 27 May, Sunday

    Time Temperature Precipitation Wind Pressure Humidity
    00:00 +12°C° 0 mm 2 mps 755 mmHg 74%
    01:00 +12°C° 0 mm 2 mps 755 mmHg 76%
    02:00 +10°C° 0 mm 2 mps 755 mmHg 78%
    03:00 +12°C° 0 mm 2 mps 755 mmHg 77%
    04:00 +12°C° 0 mm 3 mps 754 mmHg 77%
    05:00 +12°C° 0 mm 3 mps 754 mmHg 76%
    06:00 +14°C° 0 mm 3 mps 754 mmHg 71%
    07:00 +17°C° 0 mm 4 mps 754 mmHg 66%
    08:00 +19°C° 0 mm 4 mps 753 mmHg 60%
    09:00 +20°C° 0 mm 4 mps 753 mmHg 56%
    10:00 +21°C° 0 mm 4 mps 753 mmHg 52%
    11:00 +23°C° 0 mm 4 mps 753 mmHg 48%
    12:00 +23°C° 0 mm 4 mps 752 mmHg 47%
    13:00 +23°C° 0 mm 5 mps 752 mmHg 47%
    14:00 +25°C° 0 mm 5 mps 752 mmHg 46%
    15:00 +23°C° 0 mm 4 mps 752 mmHg 45%
    16:00 +23°C° 0 mm 4 mps 751 mmHg 44%
    17:00 +22°C° 0 mm 4 mps 751 mmHg 43%
    18:00 +20°C° 0 mm 4 mps 752 mmHg 45%
    19:00 +17°C° 0 mm 3 mps 752 mmHg 47%
    20:00 +14°C° 0 mm 3 mps 752 mmHg 49%
    21:00 +12°C° 0 mm 3 mps 753 mmHg 52%
    22:00 +12°C° 0 mm 2 mps 754 mmHg 54%
    23:00 +10°C° 0 mm 2 mps 754 mmHg 57%

    28 May, Monday

    Time Temperature Precipitation Wind Pressure Humidity
    00:00 +9°C° 0 mm 2 mps 755 mmHg 58%
    01:00 +8°C° 0 mm 2 mps 755 mmHg 60%
    02:00 +8°C° 0 mm 2 mps 756 mmHg 61%
    03:00 +8°C° 0 mm 2 mps 756 mmHg 59%
    04:00 +8°C° 0 mm 2 mps 756 mmHg 56%
    05:00 +8°C° 0 mm 2 mps 757 mmHg 54%
    06:00 +10°C° 0 mm 2 mps 757 mmHg 49%
    07:00 +13°C° 0 mm 2 mps 757 mmHg 43%
    08:00 +15°C° 0 mm 2 mps 757 mmHg 38%
    09:00 +17°C° 0 mm 2 mps 757 mmHg 34%
    10:00 +18°C° 0 mm 2 mps 757 mmHg 31%
    11:00 +19°C° 0 mm 2 mps 757 mmHg 27%
    12:00 +21°C° 0 mm 1 mps 757 mmHg 27%
    13:00 +22°C° 0 mm 1 mps 757 mmHg 26%
    14:00 +22°C° 0 mm 1 mps 757 mmHg 26%
    15:00 +22°C° 0 mm 1 mps 756 mmHg 28%
    16:00 +22°C° 0 mm 1 mps 756 mmHg 29%
    17:00 +21°C° 0 mm 1 mps 756 mmHg 31%
    18:00 +19°C° 0 mm 1 mps 756 mmHg 39%
    19:00 +16°C° 0 mm 1 mps 755 mmHg 47%
    20:00 +13°C° 0 mm 0 mps 755 mmHg 55%
    21:00 +12°C° 0 mm 0 mps 755 mmHg 55%
    22:00 +12°C° 0 mm 1 mps 755 mmHg 56%
    23:00 +11°C° 0 mm 1 mps 756 mmHg 57%

    29 May, Tuesday

    Time Temperature Precipitation Wind Pressure Humidity
    00:00 +11°C° 0 mm 1 mps 756 mmHg 58%
    01:00 +11°C° 0 mm 1 mps 756 mmHg 59%
    02:00 +10°C° 0 mm 1 mps 756 mmHg 60%
    03:00 +11°C° 0 mm 1 mps 756 mmHg 61%
    04:00 +11°C° 0 mm 1 mps 756 mmHg 62%
    05:00 +12°C° 0 mm 1 mps 755 mmHg 63%
    06:00 +14°C° 0 mm 2 mps 755 mmHg 58%
    07:00 +16°C° 0 mm 2 mps 755 mmHg 53%
    08:00 +19°C° 0 mm 2 mps 755 mmHg 48%
    09:00 +20°C° 0 mm 2 mps 754 mmHg 44%
    10:00 +21°C° 0 mm 2 mps 754 mmHg 41%
    11:00 +24°C° 0 mm 3 mps 753 mmHg 37%
    12:00 +24°C° 0 mm 3 mps 753 mmHg 37%
    13:00 +25°C° 0 mm 3 mps 752 mmHg 36%
    14:00 +25°C° 0 mm 3 mps 751 mmHg 36%
    15:00 +25°C° 0 mm 3 mps 751 mmHg 38%
    16:00 +25°C° 0 mm 3 mps 750 mmHg 40%
    17:00 +24°C° 0 mm 3 mps 750 mmHg 42%
    18:00 +21°C° 0 mm 2 mps 749 mmHg 51%
    19:00 +19°C° 0 mm 2 mps 749 mmHg 60%
    20:00 +17°C° 0 mm 2 mps 749 mmHg 69%
    21:00 +16°C° 0 mm 2 mps 748 mmHg 71%
    22:00 +15°C° 0 mm 2 mps 748 mmHg 74%
    23:00 +14°C° 0 mm 2 mps 748 mmHg 77%

    30 May, Wednesday

    Time Temperature Precipitation Wind Pressure Humidity
    00:00 +14°C° 0 mm 2 mps 748 mmHg 78%
    01:00 +13°C° 0 mm 2 mps 747 mmHg 79%
    02:00 +13°C° 0 mm 2 mps 747 mmHg 80%
    03:00 +14°C° 0 mm 2 mps 747 mmHg 77%
    04:00 +13°C° 0 mm 3 mps 746 mmHg 74%
    05:00 +14°C° 0 mm 3 mps 746 mmHg 71%
    06:00 +17°C° 0 mm 4 mps 746 mmHg 66%
    07:00 +19°C° 0 mm 4 mps 745 mmHg 61%
    08:00 +21°C° 0 mm 5 mps 745 mmHg 55%
    09:00 +22°C° 0 mm 5 mps 745 mmHg 51%
    10:00 +23°C° 0 mm 6 mps 744 mmHg 47%
    11:00 +24°C° 0 mm 6 mps 744 mmHg 44%
    12:00 +26°C° 0 mm 6 mps 743 mmHg 42%
    13:00 +26°C° 0 mm 6 mps 743 mmHg 40%
    14:00 +27°C° 0 mm 6 mps 743 mmHg 39%
    15:00 +26°C° 0 mm 5 mps 742 mmHg 40%
    16:00 +26°C° 0 mm 5 mps 742 mmHg 42%
    17:00 +26°C° 0 mm 4 mps 742 mmHg 44%
    18:00 +23°C° 0 mm 4 mps 742 mmHg 52%
    19:00 +21°C° 0 mm 3 mps 741 mmHg 60%
    20:00 +19°C° 0 mm 2 mps 741 mmHg 68%
    21:00 +17°C° 0 mm 2 mps 741 mmHg 71%
    22:00 +16°C° 0 mm 2 mps 741 mmHg 75%
    23:00 +14°C° 0 mm 2 mps 741 mmHg 79%
    Show more